[[{"header":{"parameterUnit":"m.s-1","parameterCategory":1,"la1":30.2991,"la2":30.254,"lo1":-89.0895,"lo2":-89.0444,"dy":0.0017,"dx":0.0017,"nx":28,"ny":28,"refTime":"2025-09-03T09:00:00:Z","depth":0,"parameterNumber":2,"parameterNumberName":"U-component_of_WINDS"},"data":[0,0,0,0,0,0,0,0,0,0,0,0,0,0,0,0,0,0,0,0,0,0,0,0,0,0,0,0,0,0,0,0,0,0,0,0,0,0,0,0,0,0,0,0,0,0,0,0,0,0,0,0,0,0,0,0,0,0,-1.1214,-1.1215,0,-1.1276,-1.1277,-1.1278,-1.1262,-1.1261,-1.126,-1.1259,-1.1324,-1.1327,-1.133,0,0,0,0,0,0,0,0,0,0,0,0,0,-1.1086,-1.1088,-1.1214,-1.1215,-1.1216,-1.1276,-1.1277,-1.1278,-1.1262,-1.1261,-1.1259,-1.1258,-1.1323,-1.1326,-1.133,0,0,0,0,0,0,0,0,0,0,0,0,0,-1.1144,-1.1089,-1.1214,-1.1215,-1.1216,-1.1276,-1.1277,-1.1278,-1.1263,-1.1261,-1.1259,-1.1257,-1.1322,-1.1326,-1.133,-1.1393,0,0,-1.1344,-1.1345,0,0,0,0,0,0,0,0,-1.1141,-1.1149,-1.1215,-1.1215,-1.1216,-1.126,-1.1255,-1.1317,-1.1263,-1.1245,-1.1259,-1.1257,-1.1304,-1.131,-1.1325,-1.1396,-1.1399,-1.1344,-1.1346,-1.1348,-1.135,0,0,0,0,0,0,0,-1.1137,-1.1146,-1.1239,-1.1216,-1.1217,-1.1214,-1.122,-1.1267,-1.1284,-1.1247,-1.1246,-1.1253,-1.1304,-1.1321,-1.1327,-1.14,-1.1344,-1.1348,-1.135,-1.1352,-1.1526,-1.1528,0,0,0,0,0,0,-1.1132,-1.1143,-1.1237,-1.1241,-1.1173,-1.1218,-1.1225,-1.1248,-1.1284,-1.1287,-1.1254,-1.1252,-1.1315,-1.1322,-1.1329,-1.1405,-1.1348,-1.1352,-1.1355,-1.1524,-1.1527,-1.1529,0,0,0,0,0,0,-1.1129,-1.114,-1.1234,-1.1192,-1.1203,-1.1222,-1.1248,-1.125,-1.1267,-1.129,-1.1293,-1.1268,-1.1314,-1.1323,-1.1377,-1.1407,-1.1354,-1.1358,-1.1522,-1.1525,-1.1528,-1.1558,0,0,0,0,0,0,-1.1125,-1.1139,-1.1163,-1.1192,-1.1206,-1.1281,-1.125,-1.1252,-1.1274,-1.1271,-1.1304,-1.1307,-1.1313,-1.1371,-1.1382,-1.1412,-1.1362,-1.1519,-1.1523,-1.1527,-1.1554,-1.1562,-1.1568,0,0,0,0,0,-1.1121,-1.1169,-1.1164,-1.1175,-1.1235,-1.1283,-1.1291,-1.1296,-1.1276,-1.1301,-1.1315,-1.1306,-1.1402,-1.1377,-1.1389,-1.1421,-1.1517,-1.1522,-1.1526,-1.1551,-1.156,-1.1568,0,0,0,0,0,0,-1.1144,-1.1173,-1.1168,-1.1227,-1.1252,-1.128,-1.1311,-1.1305,-1.1337,-1.1333,-1.1339,-1.1346,-1.1402,-1.1417,-1.1388,-1.1484,-1.1457,-1.1464,-1.1472,-1.1481,-1.1487,-1.1483,-1.1365,0,0,0,0,0,-1.1155,-1.1191,-1.1215,-1.1265,-1.1278,-1.1292,-1.1313,-1.1315,-1.1342,-1.1353,-1.1371,-1.1398,-1.1435,-1.1458,-1.1493,-1.1557,-1.1564,-1.1585,-1.1591,-1.1597,-1.1603,-1.1638,-1.1648,-1.1544,-1.1544,-1.1544,0,0,-1.118,-1.1201,-1.1223,-1.127,-1.129,-1.1327,-1.1301,-1.1342,-1.137,-1.1359,-1.1411,-1.1426,-1.1457,-1.1516,-1.1543,-1.153,-1.1633,-1.1603,-1.1607,-1.161,-1.1644,-1.1654,-1.1662,-1.1547,-1.1546,-1.1546,0,0,-1.1245,-1.1264,-1.1308,-1.1328,-1.1358,-1.1367,-1.1378,-1.1407,-1.1416,-1.1468,-1.1461,-1.1495,-1.1557,-1.1579,-1.1599,-1.1672,-1.1665,-1.1683,-1.1719,-1.1753,-1.1761,-1.1768,-1.1795,-1.1804,-1.1689,-1.169,-1.169,0,-1.1273,-1.1327,-1.1331,-1.1372,-1.1393,-1.1385,-1.143,-1.145,-1.149,-1.1505,-1.149,-1.1568,-1.1588,-1.1653,-1.1671,-1.1687,-1.1699,-1.168,-1.1759,-1.1767,-1.1774,-1.1799,-1.1809,-1.1692,-1.1691,-1.1691,-1.1691,0,-1.136,-1.1398,-1.143,-1.1469,-1.1493,-1.1536,-1.1547,-1.1572,-1.1572,-1.1583,-1.1637,-1.166,-1.17,-1.1715,-1.1716,-1.178,-1.1771,-1.1758,-1.1731,-1.1786,-1.1809,-1.1819,-1.1694,-1.1694,-1.1693,-1.1693,0,0,-1.1441,-1.148,-1.1492,-1.151,-1.1542,-1.1572,-1.1615,-1.1653,-1.1674,-1.1703,-1.1739,-1.1792,-1.178,-1.1802,-1.1805,-1.1835,-1.1892,-1.1818,-1.1819,-1.1831,-1.1965,-1.1975,-1.1986,-1.1888,-1.1889,-1.1891,-1.1962,0,-1.1508,-1.1583,-1.1587,-1.1655,-1.1691,-1.1683,-1.172,-1.1745,-1.1757,-1.1789,-1.1802,-1.184,-1.1821,-1.1834,-1.1864,-1.1879,-1.1919,-1.1874,-1.1922,-1.1924,-1.1915,-1.1998,-1.2009,-1.2075,-1.1972,-1.1973,-1.1974,0,-1.1597,-1.1627,-1.1698,-1.1726,-1.1741,-1.1775,-1.181,-1.1841,-1.1869,-1.1875,-1.19,-1.1899,-1.1944,-1.1915,-1.1977,-1.1946,-1.1966,-1.1977,-1.198,-1.1985,-1.1952,-1.2005,-1.2096,-1.2106,-1.1989,-1.1988,-1.1987,0,-1.1649,-1.1708,-1.1758,-1.1773,-1.1806,-1.183,-1.1845,-1.1872,-1.1894,-1.1925,-1.194,-1.1976,-1.1996,-1.2025,-1.2034,-1.2012,-1.2096,-1.2068,-1.2103,-1.2103,-1.2121,-1.2119,-1.2216,-1.2133,-1.2133,-1.2133,-1.2133,0,-1.1724,-1.1768,-1.1781,-1.1812,-1.1861,-1.1867,-1.1915,-1.1929,-1.1953,-1.1987,-1.1983,-1.2015,-1.2024,-1.2059,-1.2066,-1.2117,-1.2126,-1.2133,-1.2134,-1.2133,-1.2132,-1.2146,-1.2142,-1.2136,-1.2135,-1.2135,-1.2134,0,-1.1791,-1.1802,-1.1856,-1.1883,-1.1891,-1.1926,-1.1949,-1.1979,-1.199,-1.2033,-1.2044,-1.2061,-1.2101,-1.2113,-1.2161,-1.2166,-1.2225,-1.2223,-1.2216,-1.2216,-1.225,-1.2247,-1.2359,-1.2375,-1.2282,-1.2283,-1.2283,0,-1.1838,-1.1872,-1.1902,-1.1924,-1.194,-1.1976,-1.1999,-1.2005,-1.2029,-1.2064,-1.209,-1.2129,-1.2161,-1.2226,-1.2243,-1.228,-1.2278,-1.2315,-1.2284,-1.2282,-1.2279,-1.2277,-1.2281,-1.2321,-1.2322,-1.2323,-1.2324,0,-1.1922,-1.1925,-1.1957,-1.1992,-1.2019,-1.2047,-1.2073,-1.2092,-1.2103,-1.213,-1.217,-1.2195,-1.2244,-1.2283,-1.2321,-1.2337,-1.2333,-1.2333,-1.2343,-1.2343,-1.2337,-1.2341,-1.2232,-1.2331,-1.233,-1.2329,-1.2329,-1.2329,-1.198,-1.201,-1.2035,-1.2072,-1.2092,-1.2117,-1.2147,-1.2161,-1.2195,-1.2234,-1.2237,-1.2281,-1.2308,-1.2358,-1.2377,-1.2412,-1.2401,-1.2416,-1.2419,-1.2423,-1.2426,-1.2332,-1.2419,-1.2418,-1.2418,-1.2418,-1.2418,0,-1.2063,-1.208,-1.2113,-1.215,-1.2179,-1.2171,-1.22,-1.2225,-1.2263,-1.2289,-1.232,-1.2367,-1.2405,-1.2425,-1.2463,-1.2487,-1.2486,-1.2497,-1.2496,-1.25,-1.2433,-1.2421,-1.2498,-1.2498,-1.2498,-1.2498,-1.2497,-1.2497,-1.211,-1.2159,-1.2166,-1.2225,-1.2242,-1.2284,-1.2301,-1.2325,-1.2345,-1.2397,-1.2428,-1.2441,-1.2465,-1.2505,-1.2539,-1.2545,-1.2559,-1.2571,-1.2575,-1.2513,-1.2504,-1.2497,-1.2485,-1.2574,-1.2574,-1.2639,-1.264,-1.264]},{"header":{"parameterUnit":"m.s-1","parameterCategory":1,"la1":30.2991,"la2":30.254,"lo1":-89.0895,"lo2":-89.0444,"dy":0.0017,"dx":0.0017,"nx":28,"ny":28,"refTime":"2025-09-03T09:00:00:Z","depth":0,"parameterNumber":3,"parameterNumberName":"V-component_of_WINDS"},"data":[0,0,0,0,0,0,0,0,0,0,0,0,0,0,0,0,0,0,0,0,0,0,0,0,0,0,0,0,0,0,0,0,0,0,0,0,0,0,0,0,0,0,0,0,0,0,0,0,0,0,0,0,0,0,0,0,0,0,3.3848,3.3848,0,3.3888,3.3889,3.3889,3.3868,3.3867,3.3866,3.3865,3.3902,3.3904,3.3906,0,0,0,0,0,0,0,0,0,0,0,0,0,3.3746,3.3748,3.3848,3.3848,3.3849,3.3888,3.3889,3.3889,3.3868,3.3867,3.3866,3.3864,3.3902,3.3904,3.3906,0,0,0,0,0,0,0,0,0,0,0,0,0,3.3789,3.3749,3.3847,3.3843,3.3843,3.3888,3.3889,3.389,3.3869,3.3867,3.3865,3.3864,3.3901,3.3904,3.3907,3.3958,0,0,3.3916,3.3917,0,0,0,0,0,0,0,0,3.3786,3.3792,3.3843,3.3843,3.3843,3.3872,3.3867,3.3912,3.3869,3.3859,3.3865,3.3863,3.3893,3.3897,3.3908,3.3959,3.3961,3.3916,3.3918,3.3919,3.392,0,0,0,0,0,0,0,3.3783,3.379,3.3864,3.3844,3.3844,3.3837,3.3841,3.3875,3.3884,3.3859,3.3858,3.3863,3.3893,3.3905,3.3908,3.3961,3.3916,3.3919,3.3921,3.3922,3.4054,3.4055,0,0,0,0,0,0,3.3781,3.3788,3.3862,3.3865,3.381,3.384,3.3845,3.3864,3.3884,3.3885,3.3865,3.3862,3.3901,3.3905,3.391,3.3968,3.3919,3.3922,3.3924,3.4052,3.4054,3.4056,0,0,0,0,0,0,3.3779,3.3788,3.3861,3.3826,3.3835,3.3844,3.3865,3.3866,3.3878,3.3888,3.3889,3.3876,3.3899,3.3905,3.3945,3.3969,3.3923,3.3926,3.405,3.4053,3.4055,3.4087,0,0,0,0,0,0,3.3776,3.3787,3.3808,3.3827,3.3837,3.3897,3.3867,3.3868,3.3883,3.3881,3.3898,3.39,3.3899,3.3941,3.3948,3.3973,3.3929,3.4048,3.4051,3.4054,3.4084,3.4091,3.4096,0,0,0,0,0,3.3773,3.3815,3.3809,3.3818,3.3863,3.3899,3.3904,3.3903,3.3886,3.3905,3.3912,3.3899,3.3966,3.3945,3.3953,3.3979,3.4046,3.405,3.4054,3.4081,3.4089,3.4096,0,0,0,0,0,0,3.3798,3.3818,3.3811,3.3862,3.3879,3.3895,3.392,3.3912,3.3934,3.393,3.3927,3.3931,3.3972,3.398,3.3956,3.4028,3.4003,3.4009,3.4021,3.4029,3.4035,3.4031,3.3931,0,0,0,0,0,3.381,3.3839,3.3854,3.3896,3.3905,3.3912,3.3927,3.3925,3.3942,3.3949,3.3958,3.3974,3.3998,3.4014,3.4037,3.4086,3.4088,3.4107,3.4113,3.4118,3.4122,3.4146,3.4154,3.4069,3.4069,3.4069,0,0,3.3833,3.3848,3.3866,3.3902,3.3915,3.3943,3.3918,3.3949,3.3969,3.3953,3.3991,3.3999,3.4016,3.406,3.4079,3.4067,3.4146,3.4123,3.4127,3.4128,3.415,3.4158,3.4165,3.4071,3.4071,3.407,0,0,3.389,3.3906,3.3942,3.3955,3.3976,3.3979,3.3988,3.4006,3.401,3.4049,3.4037,3.406,3.4103,3.4115,3.4127,3.4187,3.4176,3.4195,3.4226,3.4249,3.4255,3.4261,3.4281,3.4288,3.42,3.42,3.42,0,3.3917,3.396,3.3961,3.3993,3.4007,3.3996,3.403,3.4043,3.407,3.4079,3.4066,3.4118,3.4129,3.4174,3.4189,3.42,3.4208,3.4192,3.4255,3.4261,3.4266,3.4284,3.4292,3.4202,3.4202,3.4201,3.4201,0,3.399,3.4021,3.4047,3.4074,3.4092,3.4125,3.4128,3.4146,3.4142,3.4147,3.4185,3.4198,3.4222,3.4233,3.423,3.4277,3.4269,3.4256,3.423,3.4276,3.4293,3.43,3.4205,3.4204,3.4203,3.4203,0,0,3.4064,3.409,3.4099,3.411,3.4132,3.4154,3.4186,3.4211,3.4225,3.4244,3.4269,3.4305,3.4292,3.4305,3.4303,3.4324,3.4368,3.4307,3.4308,3.4316,3.4418,3.4427,3.4435,3.4361,3.4363,3.4364,3.4416,0,3.4121,3.4178,3.4178,3.423,3.4256,3.4245,3.4272,3.4287,3.4292,3.4313,3.4318,3.4343,3.4326,3.4333,3.4353,3.4358,3.4388,3.4355,3.4382,3.4383,3.4376,3.4444,3.4453,3.4502,3.4423,3.4424,3.4425,0,3.4194,3.4216,3.427,3.4286,3.4297,3.4322,3.4343,3.4365,3.4381,3.4383,3.4398,3.4392,3.4422,3.4398,3.4438,3.4415,3.4426,3.4431,3.4432,3.4433,3.4405,3.4444,3.4518,3.4524,3.4436,3.4435,3.4434,0,3.4239,3.4282,3.4319,3.4329,3.435,3.4367,3.4376,3.439,3.4405,3.4423,3.4432,3.4454,3.4466,3.4482,3.4481,3.4464,3.4521,3.4497,3.4521,3.4521,3.4532,3.4531,3.4606,3.4543,3.4543,3.4543,3.4543,0,3.4301,3.4334,3.4339,3.4362,3.4398,3.4398,3.4433,3.444,3.4453,3.4475,3.4467,3.4488,3.4487,3.4508,3.4508,3.4539,3.4545,3.4546,3.4545,3.4545,3.4545,3.4551,3.4546,3.4545,3.4545,3.4544,3.4544,0,3.4357,3.4362,3.4401,3.4417,3.4422,3.4447,3.446,3.4481,3.4485,3.4513,3.452,3.4526,3.4549,3.4551,3.4579,3.4578,3.4616,3.4613,3.4611,3.4609,3.4632,3.4629,3.4712,3.4722,3.4655,3.4656,3.4656,0,3.4395,3.442,3.4438,3.4453,3.4463,3.4488,3.4502,3.4503,3.4518,3.4537,3.4555,3.4578,3.4597,3.4635,3.464,3.4661,3.4656,3.4684,3.4659,3.4658,3.4654,3.4651,3.4653,3.4688,3.4689,3.4689,3.469,0,3.4461,3.4462,3.4484,3.4507,3.4525,3.4542,3.4559,3.4571,3.4573,3.459,3.4615,3.4629,3.4657,3.4679,3.4699,3.4706,3.4698,3.4698,3.4704,3.4704,3.47,3.47,3.4621,3.4696,3.4695,3.4695,3.4694,3.4694,3.4507,3.4528,3.4544,3.4568,3.4581,3.4596,3.4615,3.4622,3.4643,3.4666,3.4665,3.4692,3.4705,3.4731,3.474,3.4759,3.475,3.476,3.4761,3.4763,3.4764,3.4699,3.4763,3.4763,3.4763,3.4763,3.4763,0,3.457,3.458,3.4603,3.4626,3.4644,3.4637,3.4654,3.4669,3.4693,3.4707,3.4725,3.4753,3.4774,3.4782,3.4802,3.4816,3.4812,3.4821,3.4819,3.482,3.4773,3.4765,3.4823,3.4823,3.4823,3.4823,3.4823,3.4823,3.4606,3.464,3.4643,3.4682,3.4691,3.4718,3.4728,3.4741,3.4752,3.4783,3.4801,3.4806,3.4817,3.4838,3.4856,3.4858,3.4865,3.4874,3.4874,3.483,3.4824,3.4818,3.4809,3.4877,3.4877,3.4919,3.4919,3.492]}]]